{"data":{"norad_id":67481,"epoch":"2026-05-25T03:45:29.148768Z","epoch_age_seconds":71769,"freshness":"FRESH","line1":"1 67481U 25082C   26145.15658737  .00023141  00000+0  20642-3 0  9990","line2":"2 67481  41.4768  98.0488 0011372 194.9663 165.0844 15.67794810289619","mean_motion":15.6779481,"eccentricity":0.0011372,"inclination_deg":41.4768,"raan_deg":98.0488,"arg_perigee_deg":194.9663,"mean_anomaly_deg":165.0844,"bstar":0.00020642,"rev_number":28961,"period_min":91.848754110878,"perigee_km":357.54433198396,"apogee_km":372.88140692705,"semimajor_km":6743.3498694555,"source":"CELESTRAK","updated_at":"2026-05-25T13:38:07.038552Z"}}